Pagrindinis puslapis
METAR-TAF:

METAR-TAF

Oro uostai :

Gaines County Airport

Seminole, Teksasas, Jungtinės Amerikos Valstijos

platuma: 32-40-31N, ilguma: 102-39-09W, Aukštis: 1010 m

Dabartinis oras

Ataskaita buvo paskelbta 32 minutes, ne 16:15 UTC
Vėjas 3 kt iš Pietryčių
Temperatūra 24°C
Drėgmė 57%
Slėgis 1024 hPa
Matomumas: 16.1 km
Giedras dangus

METAR: KGNC 031615Z AUTO 14003KT 10SM CLR 24/15 A3025 RMK AO2 T02430146

Laikas: 11:47 (16:47 UTC)


TAF: trūkstamas

Orai ataskaitas ir orų prognozės (METAR, TAF).

turimą stotys yra geltonos ir raudonos taškus žemėlapyje.

Perkelti pele per norėdami pamatyti stoties vardą.

Tada spustelėkite, norėdami matyti oro stebėjimo ir prognozės.

Norėdami pakeisti žemėlapį: spustelėkite ant žalios mygtukų su juodo kryžiaus žemyn,; žalią mygtuką su brūkšneliu, jei norite nutolinti; arba žalių rodyklių gretimoms žemėlapius.


METAR-TAF: